Year,Month,Day,Hour,Minute,Value (Times are PST for temperature in C)
2017,03,25,00,00,6.80
2017,03,25,00,01,6.80
2017,03,25,00,02,6.90
2017,03,25,00,03,6.90
2017,03,25,00,04,6.90
2017,03,25,00,05,6.90
2017,03,25,00,06,6.90
2017,03,25,00,07,6.90
2017,03,25,00,08,7.00
2017,03,25,00,09,7.00
2017,03,25,00,10,7.00
2017,03,25,00,11,7.00
2017,03,25,00,12,7.00
2017,03,25,00,13,7.00
2017,03,25,00,14,6.90
2017,03,25,00,15,6.90
2017,03,25,00,16,6.90
2017,03,25,00,17,6.90
2017,03,25,00,18,6.90
2017,03,25,00,19,6.90
2017,03,25,00,20,6.80
2017,03,25,00,21,6.80
2017,03,25,00,22,6.80
2017,03,25,00,23,6.80
2017,03,25,00,24,6.70
2017,03,25,00,25,6.70
2017,03,25,00,26,6.70
2017,03,25,00,27,6.70
2017,03,25,00,28,6.70
2017,03,25,00,29,6.60
2017,03,25,00,30,6.60
2017,03,25,00,31,6.60
2017,03,25,00,32,6.60
2017,03,25,00,33,6.60
2017,03,25,00,34,6.60
2017,03,25,00,35,6.50
2017,03,25,00,36,6.50
2017,03,25,00,37,6.50
2017,03,25,00,38,6.50
2017,03,25,00,39,6.60
2017,03,25,00,40,6.60
2017,03,25,00,41,6.60
2017,03,25,00,42,6.60
2017,03,25,00,43,6.60
2017,03,25,00,44,6.60
2017,03,25,00,45,6.60
2017,03,25,00,46,6.60
2017,03,25,00,47,6.60
2017,03,25,00,48,6.60
2017,03,25,00,49,6.60
2017,03,25,00,50,6.60
2017,03,25,00,51,6.60
2017,03,25,00,52,6.60
2017,03,25,00,53,6.60
2017,03,25,00,54,6.60
2017,03,25,00,55,6.50
2017,03,25,00,56,6.50
2017,03,25,00,57,6.50
2017,03,25,00,58,6.40
2017,03,25,00,59,6.40
2017,03,25,01,00,6.40
2017,03,25,01,01,6.40
2017,03,25,01,02,6.30
2017,03,25,01,03,6.30
2017,03,25,01,04,6.30
2017,03,25,01,05,6.30
2017,03,25,01,06,6.30
2017,03,25,01,07,6.30
2017,03,25,01,08,6.30
2017,03,25,01,09,6.20
2017,03,25,01,10,6.20
2017,03,25,01,11,6.20
2017,03,25,01,12,6.20
2017,03,25,01,13,6.20
2017,03,25,01,14,6.20
2017,03,25,01,15,6.20
2017,03,25,01,16,6.20
2017,03,25,01,17,6.10
2017,03,25,01,18,6.10
2017,03,25,01,19,6.10
2017,03,25,01,20,6.10
2017,03,25,01,21,6.10
2017,03,25,01,22,6.10
2017,03,25,01,23,6.00
2017,03,25,01,24,6.00
2017,03,25,01,25,6.00
2017,03,25,01,26,6.00
2017,03,25,01,27,6.00
2017,03,25,01,28,6.00
2017,03,25,01,29,6.00
2017,03,25,01,30,6.00
2017,03,25,01,31,6.00
2017,03,25,01,32,6.10
2017,03,25,01,33,6.10
2017,03,25,01,34,6.10
2017,03,25,01,35,6.10
2017,03,25,01,36,6.10
2017,03,25,01,37,6.10
2017,03,25,01,38,6.10
2017,03,25,01,39,6.10
2017,03,25,01,40,6.10
2017,03,25,01,41,6.10
2017,03,25,01,42,6.10
2017,03,25,01,43,6.10
2017,03,25,01,44,6.10
2017,03,25,01,45,6.20
2017,03,25,01,46,6.20
2017,03,25,01,47,6.20
2017,03,25,01,48,6.30
2017,03,25,01,49,6.30
2017,03,25,01,50,6.30
2017,03,25,01,51,6.30
2017,03,25,01,52,6.30
2017,03,25,01,53,6.30
2017,03,25,01,54,6.30
2017,03,25,01,55,6.30
2017,03,25,01,56,6.40
2017,03,25,01,57,6.40
2017,03,25,01,58,6.40
2017,03,25,01,59,6.40
2017,03,25,02,00,6.40
2017,03,25,02,01,6.40
2017,03,25,02,02,6.40
2017,03,25,02,03,6.40
2017,03,25,02,04,6.40
2017,03,25,02,05,6.40
2017,03,25,02,06,6.40
2017,03,25,02,07,6.30
2017,03,25,02,08,6.30
2017,03,25,02,09,6.40
2017,03,25,02,10,6.40
2017,03,25,02,11,6.40
2017,03,25,02,12,6.40
2017,03,25,02,13,6.40
2017,03,25,02,14,6.50
2017,03,25,02,15,6.50
2017,03,25,02,16,6.60
2017,03,25,02,17,6.60
2017,03,25,02,18,6.60
2017,03,25,02,19,6.60
2017,03,25,02,20,6.70
2017,03,25,02,21,6.70
2017,03,25,02,22,6.70
2017,03,25,02,23,6.70
2017,03,25,02,24,6.70
2017,03,25,02,25,6.70
2017,03,25,02,26,6.70
2017,03,25,02,27,6.70
2017,03,25,02,28,6.70
2017,03,25,02,29,6.70
2017,03,25,02,30,6.70
2017,03,25,02,31,6.60
2017,03,25,02,32,6.60
2017,03,25,02,33,6.60
2017,03,25,02,34,6.60
2017,03,25,02,35,6.60
2017,03,25,02,36,6.60
2017,03,25,02,37,6.60
2017,03,25,02,38,6.50
2017,03,25,02,39,6.50
2017,03,25,02,40,6.50
2017,03,25,02,41,6.50
2017,03,25,02,42,6.40
2017,03,25,02,43,6.40
2017,03,25,02,44,6.40
2017,03,25,02,45,6.40
2017,03,25,02,46,6.40
2017,03,25,02,47,6.40
2017,03,25,02,48,6.40
2017,03,25,02,49,6.30
2017,03,25,02,50,6.30
2017,03,25,02,51,6.30
2017,03,25,02,52,6.30
2017,03,25,02,53,6.30
2017,03,25,02,54,6.30
2017,03,25,02,55,6.10
2017,03,25,02,56,6.10
2017,03,25,02,57,6.10
2017,03,25,02,58,6.10
2017,03,25,02,59,6.10
2017,03,25,03,00,6.10
2017,03,25,03,01,6.10
2017,03,25,03,02,6.10
2017,03,25,03,03,6.10
2017,03,25,03,04,6.10
2017,03,25,03,05,6.10
2017,03,25,08,10,5.30
2017,03,25,08,11,5.30
2017,03,25,08,12,5.30
2017,03,25,08,13,5.30
2017,03,25,08,14,5.30
2017,03,25,08,15,5.30
2017,03,25,08,16,5.30
2017,03,25,08,17,5.30
2017,03,25,08,18,5.30
2017,03,25,08,19,5.40
2017,03,25,08,20,5.40
2017,03,25,08,21,5.50
2017,03,25,08,22,5.50
2017,03,25,08,23,5.60
2017,03,25,08,24,5.70
2017,03,25,08,25,5.80
2017,03,25,08,26,5.90
2017,03,25,08,27,6.00
2017,03,25,08,28,6.20
2017,03,25,08,29,6.40
2017,03,25,08,30,6.50
2017,03,25,08,31,6.70
2017,03,25,08,32,6.80
2017,03,25,08,33,7.00
2017,03,25,08,34,7.20
2017,03,25,08,35,7.30
2017,03,25,08,36,7.50
2017,03,25,08,37,7.70
2017,03,25,08,38,7.80
2017,03,25,08,39,8.00
2017,03,25,08,40,8.20
2017,03,25,08,41,8.30
2017,03,25,08,42,8.50
2017,03,25,08,43,8.60
2017,03,25,08,44,8.60
2017,03,25,08,45,8.60
2017,03,25,08,46,8.60
2017,03,25,08,47,8.70
2017,03,25,08,48,8.70
2017,03,25,08,49,8.70
2017,03,25,08,50,8.70
2017,03,25,08,51,8.70
2017,03,25,08,52,8.70
2017,03,25,08,53,8.70
2017,03,25,08,54,8.60
2017,03,25,08,55,8.60
2017,03,25,08,56,8.70
2017,03,25,08,57,8.70
2017,03,25,08,58,8.70
2017,03,25,08,59,8.60
2017,03,25,09,00,8.50
2017,03,25,09,01,8.40
2017,03,25,09,02,8.20
2017,03,25,09,03,8.10
2017,03,25,09,04,7.90
2017,03,25,09,05,7.80
2017,03,25,09,06,7.70
2017,03,25,09,07,7.60
2017,03,25,09,08,7.50
2017,03,25,09,09,7.40
2017,03,25,09,10,7.40
2017,03,25,09,11,7.40
2017,03,25,09,12,7.50
2017,03,25,09,13,7.50
2017,03,25,09,14,7.60
2017,03,25,09,15,7.70
2017,03,25,09,16,7.80
2017,03,25,09,17,7.80
2017,03,25,09,18,7.90
2017,03,25,09,19,8.00
2017,03,25,09,20,8.10
2017,03,25,09,21,8.30
2017,03,25,09,22,8.40
2017,03,25,09,23,8.60
2017,03,25,09,24,8.60
2017,03,25,09,25,8.60
2017,03,25,09,26,8.70
2017,03,25,09,27,8.60
2017,03,25,09,28,8.60
2017,03,25,09,29,8.60
2017,03,25,09,30,8.60
2017,03,25,09,31,8.50
2017,03,25,09,32,8.50
2017,03,25,09,33,8.50
2017,03,25,09,34,8.40
2017,03,25,09,35,8.40
2017,03,25,09,36,8.40
2017,03,25,09,37,8.40
2017,03,25,09,38,8.40
2017,03,25,09,39,8.40
2017,03,25,09,40,8.30
2017,03,25,09,41,8.40
2017,03,25,09,42,8.40
2017,03,25,09,43,8.30
2017,03,25,09,44,8.30
2017,03,25,09,45,8.30
2017,03,25,09,46,8.30
2017,03,25,09,47,8.30
2017,03,25,09,48,8.30
2017,03,25,09,49,8.30
2017,03,25,09,50,8.30
2017,03,25,09,51,8.30
2017,03,25,09,52,8.20
2017,03,25,09,53,8.20
2017,03,25,09,54,8.20
2017,03,25,09,55,8.30
2017,03,25,09,56,8.30
2017,03,25,09,57,8.30
2017,03,25,09,58,8.30
2017,03,25,09,59,8.30
2017,03,25,10,00,8.30
2017,03,25,10,01,8.30
2017,03,25,10,02,8.40
2017,03,25,10,03,8.40
2017,03,25,10,04,8.50
2017,03,25,10,05,8.50
2017,03,25,10,06,8.50
2017,03,25,10,07,8.60
2017,03,25,10,08,8.60
2017,03,25,10,09,8.60
2017,03,25,10,10,8.60
2017,03,25,10,11,8.60
2017,03,25,10,12,8.60
2017,03,25,10,13,8.60
2017,03,25,10,14,8.60
2017,03,25,10,15,8.70
2017,03,25,10,16,8.60
2017,03,25,10,17,8.60
2017,03,25,10,18,8.60
2017,03,25,10,19,8.70
2017,03,25,10,20,8.70
2017,03,25,10,21,8.70
2017,03,25,10,22,8.80
2017,03,25,10,23,8.80
2017,03,25,10,24,8.80
2017,03,25,10,25,8.90
2017,03,25,10,26,8.90
2017,03,25,10,27,8.90
2017,03,25,10,28,8.90
2017,03,25,10,29,8.90
2017,03,25,10,30,8.90
2017,03,25,10,31,8.90
2017,03,25,10,32,8.90
2017,03,25,10,33,8.80
2017,03,25,10,34,8.80
2017,03,25,10,35,8.80
2017,03,25,10,36,8.90
2017,03,25,10,37,8.90
2017,03,25,10,38,8.90
2017,03,25,10,39,8.90
2017,03,25,10,40,8.90
2017,03,25,10,41,8.90
2017,03,25,10,42,8.90
2017,03,25,10,43,8.90
2017,03,25,10,44,8.90
2017,03,25,10,45,8.90
2017,03,25,10,46,8.90
2017,03,25,10,47,8.80
2017,03,25,10,48,8.80
2017,03,25,10,49,8.80
2017,03,25,10,50,8.80
2017,03,25,10,51,8.80
2017,03,25,10,52,8.80
2017,03,25,10,53,8.80
2017,03,25,10,54,8.80
2017,03,25,10,55,8.80
2017,03,25,10,56,8.80
2017,03,25,10,57,8.80
2017,03,25,10,58,8.90
2017,03,25,10,59,8.90
2017,03,25,11,00,8.90
2017,03,25,11,01,8.90
2017,03,25,11,02,8.90
2017,03,25,11,03,8.90
2017,03,25,11,04,9.00
2017,03,25,11,05,9.00
2017,03,25,11,06,9.10
2017,03,25,11,07,9.10
2017,03,25,11,08,9.10
2017,03,25,11,09,9.10
2017,03,25,11,10,9.10
2017,03,25,11,11,9.10
2017,03,25,11,12,9.10
2017,03,25,11,13,9.10
2017,03,25,11,14,9.10
2017,03,25,11,15,9.00
2017,03,25,11,16,9.00
2017,03,25,11,17,8.90
2017,03,25,11,18,8.90
2017,03,25,11,19,8.90
2017,03,25,11,20,8.80
2017,03,25,11,21,8.80
2017,03,25,11,22,8.80
2017,03,25,11,23,8.70
2017,03,25,11,24,8.70
2017,03,25,11,25,8.70
2017,03,25,11,26,8.70
2017,03,25,11,27,8.70
2017,03,25,11,28,8.70
2017,03,25,11,29,8.70
2017,03,25,11,30,8.60
2017,03,25,11,31,8.60
2017,03,25,11,32,8.60
2017,03,25,11,33,8.60
2017,03,25,11,34,8.60
2017,03,25,11,35,8.60
2017,03,25,11,36,8.60
2017,03,25,11,37,8.60
2017,03,25,11,38,8.50
2017,03,25,11,39,8.50
2017,03,25,11,40,8.40
2017,03,25,11,41,8.40
2017,03,25,11,42,8.50
2017,03,25,11,43,8.60
2017,03,25,11,44,8.70
2017,03,25,11,45,8.70
2017,03,25,11,46,8.70
2017,03,25,11,47,8.70
2017,03,25,11,48,8.70
2017,03,25,11,49,8.70
2017,03,25,11,50,8.70
2017,03,25,11,51,8.70
2017,03,25,11,52,8.60
2017,03,25,11,53,8.60
2017,03,25,11,54,8.70
2017,03,25,11,55,8.70
2017,03,25,11,56,8.70
2017,03,25,11,57,8.70
2017,03,25,11,58,8.70
2017,03,25,11,59,8.70
2017,03,25,12,00,8.70
2017,03,25,12,01,8.70
2017,03,25,12,02,8.80
2017,03,25,12,03,8.80
2017,03,25,12,04,8.80
2017,03,25,12,05,8.80
2017,03,25,12,06,8.80
2017,03,25,12,07,8.80
2017,03,25,12,08,8.90
2017,03,25,12,09,8.90
2017,03,25,12,10,9.00
2017,03,25,12,11,9.00
2017,03,25,12,12,9.10
2017,03,25,12,13,9.10
2017,03,25,12,14,9.10
2017,03,25,12,15,9.10
2017,03,25,12,16,9.10
2017,03,25,12,17,9.10
2017,03,25,12,18,9.10
2017,03,25,12,19,9.10
2017,03,25,12,20,9.20
2017,03,25,12,21,9.20
2017,03,25,12,22,9.30
2017,03,25,12,23,9.30
2017,03,25,12,24,9.30
2017,03,25,12,25,9.30
2017,03,25,12,26,9.30
2017,03,25,12,27,9.30
2017,03,25,12,28,9.30
2017,03,25,12,29,9.30
2017,03,25,12,30,9.40
2017,03,25,12,31,9.40
2017,03,25,12,32,9.50
2017,03,25,12,33,9.60
2017,03,25,12,34,9.60
2017,03,25,12,35,9.60
2017,03,25,12,36,9.60
2017,03,25,12,37,9.60
2017,03,25,12,38,9.60
2017,03,25,12,39,9.60
2017,03,25,12,40,9.60
2017,03,25,12,41,9.60
2017,03,25,12,42,9.60
2017,03,25,12,43,9.60
2017,03,25,12,44,9.60
2017,03,25,12,45,9.60
2017,03,25,12,46,9.60
2017,03,25,12,47,9.70
2017,03,25,12,48,9.70
2017,03,25,12,49,9.70
2017,03,25,12,50,9.70
2017,03,25,12,51,9.80
2017,03,25,12,52,9.90
2017,03,25,12,53,9.90
2017,03,25,12,54,9.90
2017,03,25,12,55,9.90
2017,03,25,12,56,9.80
2017,03,25,12,57,9.60
2017,03,25,12,58,9.50
2017,03,25,12,59,9.40
2017,03,25,13,00,9.30
2017,03,25,13,01,9.30
2017,03,25,13,02,9.30
2017,03,25,13,03,9.30
2017,03,25,13,04,9.40
2017,03,25,13,05,9.40
2017,03,25,13,06,9.50
2017,03,25,13,07,9.50
2017,03,25,13,08,9.60
2017,03,25,13,09,9.60
2017,03,25,13,10,9.60
2017,03,25,13,11,9.60
2017,03,25,13,12,9.50
2017,03,25,13,13,9.50
2017,03,25,13,14,9.40
2017,03,25,13,15,9.50
2017,03,25,13,16,9.60
2017,03,25,13,17,9.70
2017,03,25,13,18,9.70
2017,03,25,13,19,9.70
2017,03,25,13,20,9.60
2017,03,25,13,21,9.60
2017,03,25,13,22,9.60
2017,03,25,13,23,9.60
2017,03,25,13,24,9.70
2017,03,25,13,25,9.70
2017,03,25,13,26,9.80
2017,03,25,13,27,9.80
2017,03,25,13,28,9.80
2017,03,25,13,29,9.80
2017,03,25,13,30,9.80
2017,03,25,13,31,9.80
2017,03,25,13,32,9.80
2017,03,25,13,33,9.80
2017,03,25,13,34,9.90
2017,03,25,13,35,9.80
2017,03,25,13,36,9.80
2017,03,25,13,37,9.80
2017,03,25,13,38,9.70
2017,03,25,13,39,9.60
2017,03,25,13,40,9.60
2017,03,25,13,41,9.60
2017,03,25,13,42,9.50
2017,03,25,13,43,9.50
2017,03,25,13,44,9.50
2017,03,25,13,45,9.60
2017,03,25,13,46,9.60
2017,03,25,13,47,9.60
2017,03,25,13,48,9.60
2017,03,25,13,49,9.60
2017,03,25,13,50,9.60
2017,03,25,13,51,9.60
2017,03,25,13,52,9.60
2017,03,25,13,53,9.60
2017,03,25,13,54,9.60
2017,03,25,13,55,9.70
2017,03,25,13,56,9.70
2017,03,25,13,57,9.70
2017,03,25,13,58,9.70
2017,03,25,13,59,9.80
2017,03,25,14,00,9.80
2017,03,25,14,01,10.00
2017,03,25,14,02,10.20
2017,03,25,14,03,10.30
2017,03,25,14,04,10.40
2017,03,25,14,05,10.50
2017,03,25,14,06,10.60
2017,03,25,14,07,10.70
2017,03,25,14,08,10.70
2017,03,25,14,09,10.80
2017,03,25,14,10,10.90
2017,03,25,14,11,11.00
2017,03,25,14,12,11.20
2017,03,25,14,13,11.30
2017,03,25,14,14,11.40
2017,03,25,14,15,11.40
2017,03,25,14,16,11.30
2017,03,25,14,17,11.40
2017,03,25,14,18,11.30
2017,03,25,14,19,11.20
2017,03,25,14,20,11.10
2017,03,25,14,21,11.20
2017,03,25,14,22,11.20
2017,03,25,14,23,11.30
2017,03,25,14,24,11.30
2017,03,25,14,25,11.20
2017,03,25,14,26,11.20
2017,03,25,14,27,11.10
2017,03,25,14,28,11.10
2017,03,25,14,29,11.10
2017,03,25,14,30,11.10
2017,03,25,14,31,11.20
2017,03,25,14,32,11.20
2017,03,25,14,33,11.30
2017,03,25,14,34,11.20
2017,03,25,14,35,11.10
2017,03,25,14,36,11.10
2017,03,25,14,37,11.10
2017,03,25,14,38,11.10
2017,03,25,14,39,11.10
2017,03,25,14,40,11.20
2017,03,25,14,41,11.20
2017,03,25,14,42,11.20
2017,03,25,14,43,11.30
2017,03,25,14,44,11.30
2017,03,25,14,45,11.20
2017,03,25,14,46,11.10
2017,03,25,14,47,11.10
2017,03,25,14,48,11.10
2017,03,25,14,49,11.20
2017,03,25,14,50,11.30
2017,03,25,14,51,11.30
2017,03,25,14,52,11.20
2017,03,25,14,53,11.10
2017,03,25,14,54,11.00
2017,03,25,14,55,11.00
2017,03,25,14,56,10.90
2017,03,25,14,57,10.80
2017,03,25,14,58,10.90
2017,03,25,14,59,11.00
2017,03,25,15,00,10.90
2017,03,25,15,01,10.90
2017,03,25,15,02,10.90
2017,03,25,15,03,11.00
2017,03,25,15,04,11.10
2017,03,25,15,05,11.00
2017,03,25,15,06,11.00
2017,03,25,15,07,10.80
2017,03,25,15,08,10.70
2017,03,25,15,09,10.50
2017,03,25,15,10,10.40
2017,03,25,15,11,10.40
2017,03,25,15,12,10.30
2017,03,25,15,13,10.30
2017,03,25,15,14,10.30
2017,03,25,15,15,10.20
2017,03,25,15,16,10.20
2017,03,25,15,17,10.20
2017,03,25,15,18,10.20
2017,03,25,15,19,10.20
2017,03,25,15,20,10.10
2017,03,25,15,21,10.00
2017,03,25,15,22,10.00
2017,03,25,15,23,9.90
2017,03,25,15,24,10.00
2017,03,25,15,25,10.10
2017,03,25,15,26,10.10
2017,03,25,15,27,10.10
2017,03,25,15,28,10.20
2017,03,25,15,29,10.20
2017,03,25,15,30,10.20
2017,03,25,15,31,10.20
2017,03,25,15,32,10.10
2017,03,25,15,33,10.10
2017,03,25,15,34,10.10
2017,03,25,15,35,10.10
2017,03,25,15,36,10.10
2017,03,25,15,37,10.10
2017,03,25,15,38,10.10
2017,03,25,15,39,10.10
2017,03,25,15,40,10.10
2017,03,25,15,41,10.00
2017,03,25,15,42,10.10
2017,03,25,15,43,10.20
2017,03,25,15,44,10.10
2017,03,25,15,45,10.10
2017,03,25,15,46,10.10
2017,03,25,15,47,10.20
2017,03,25,15,48,10.20
2017,03,25,15,49,10.20
2017,03,25,15,50,10.20
2017,03,25,15,51,10.20
2017,03,25,15,52,10.20
2017,03,25,15,53,10.20
2017,03,25,15,54,10.20
2017,03,25,15,55,10.20
2017,03,25,15,56,10.10
2017,03,25,15,57,10.10
2017,03,25,15,58,10.00
2017,03,25,15,59,10.00
2017,03,25,16,00,9.90
2017,03,25,16,01,9.90
2017,03,25,16,02,9.90
2017,03,25,16,03,10.00
2017,03,25,16,04,10.00
2017,03,25,16,05,9.90
2017,03,25,16,06,9.80
2017,03,25,16,07,9.70
2017,03,25,16,08,9.70
2017,03,25,16,09,9.70
2017,03,25,16,10,9.70
2017,03,25,16,11,9.70
2017,03,25,16,12,9.70
2017,03,25,16,13,9.70
2017,03,25,16,14,9.70
2017,03,25,16,15,9.70
2017,03,25,16,16,9.70
2017,03,25,16,17,9.70
2017,03,25,16,18,9.80
2017,03,25,16,19,9.80
2017,03,25,16,20,9.80
2017,03,25,16,21,9.80
2017,03,25,16,22,9.90
2017,03,25,16,23,9.90
2017,03,25,16,24,9.90
2017,03,25,16,25,9.80
2017,03,25,16,26,9.80
2017,03,25,16,27,9.80
2017,03,25,16,28,9.70
2017,03,25,16,29,9.70
2017,03,25,16,30,9.60
2017,03,25,16,31,9.60
2017,03,25,16,32,9.60
2017,03,25,16,33,9.60
2017,03,25,16,34,9.60
2017,03,25,16,35,9.60
2017,03,25,16,36,9.60
2017,03,25,16,37,9.50
2017,03,25,16,38,9.50
2017,03,25,16,39,9.50
2017,03,25,16,40,9.50
2017,03,25,16,41,9.50
2017,03,25,16,42,9.50
2017,03,25,16,43,9.50
2017,03,25,16,44,9.60
2017,03,25,16,45,9.60
2017,03,25,16,46,9.60
2017,03,25,16,47,9.60
2017,03,25,16,48,9.60
2017,03,25,16,49,9.60
2017,03,25,16,50,9.60
2017,03,25,16,51,9.60
2017,03,25,16,52,9.60
2017,03,25,16,53,9.60
2017,03,25,16,54,9.60
2017,03,25,16,55,9.60
2017,03,25,16,56,9.60
2017,03,25,16,57,9.60
2017,03,25,16,58,9.60
2017,03,25,16,59,9.50
2017,03,25,17,00,9.40
2017,03,25,17,01,9.40
2017,03,25,17,02,9.40
2017,03,25,17,03,9.40
2017,03,25,17,04,9.40
2017,03,25,17,05,9.40
2017,03,25,17,06,9.40
2017,03,25,17,07,9.50
2017,03,25,17,08,9.50
2017,03,25,17,09,9.60
2017,03,25,17,10,9.60
2017,03,25,17,11,9.60
2017,03,25,17,12,9.60
2017,03,25,17,13,9.60
2017,03,25,17,14,9.60
2017,03,25,17,15,9.50
2017,03,25,17,16,9.50
2017,03,25,17,17,9.50
2017,03,25,17,18,9.40
2017,03,25,17,19,9.40
2017,03,25,17,20,9.40
2017,03,25,17,21,9.40
2017,03,25,17,22,9.50
2017,03,25,17,23,9.50
2017,03,25,17,24,9.50
2017,03,25,17,25,9.40
2017,03,25,17,26,9.40
2017,03,25,17,27,9.40
2017,03,25,17,28,9.40
2017,03,25,17,29,9.40
2017,03,25,17,30,9.40
2017,03,25,17,31,9.50
2017,03,25,17,32,9.50
2017,03,25,17,33,9.50
2017,03,25,17,34,9.60
2017,03,25,17,35,9.60
2017,03,25,17,36,9.60
2017,03,25,17,37,9.60
2017,03,25,17,38,9.60
2017,03,25,17,39,9.60
2017,03,25,17,40,9.50
2017,03,25,17,41,9.50
2017,03,25,17,42,9.50
2017,03,25,17,43,9.50
2017,03,25,17,44,9.40
2017,03,25,17,45,9.30
2017,03,25,17,46,9.30
2017,03,25,17,47,9.20
2017,03,25,17,48,9.20
2017,03,25,17,49,9.20
2017,03,25,17,50,9.10
2017,03,25,17,51,9.10
2017,03,25,17,52,9.10
2017,03,25,17,53,9.10
2017,03,25,17,54,9.10
2017,03,25,17,55,9.10
2017,03,25,17,56,9.10
2017,03,25,17,57,9.10
2017,03,25,17,58,9.10
2017,03,25,17,59,9.10
2017,03,25,18,00,9.10
2017,03,25,18,01,9.10
2017,03,25,18,02,9.10
2017,03,25,18,03,9.10
2017,03,25,18,04,9.00
2017,03,25,18,05,9.00
2017,03,25,18,06,9.00
2017,03,25,18,07,9.00
2017,03,25,18,08,8.90
2017,03,25,18,09,8.90
2017,03,25,18,10,8.90
2017,03,25,18,11,8.90
2017,03,25,18,12,8.90
2017,03,25,18,13,8.90
2017,03,25,18,14,8.80
2017,03,25,18,15,8.80
2017,03,25,18,16,8.80
2017,03,25,18,17,8.80
2017,03,25,18,18,8.80
2017,03,25,18,19,8.70
2017,03,25,18,20,8.70
2017,03,25,18,21,8.70
2017,03,25,18,22,8.70
2017,03,25,18,23,8.60
2017,03,25,18,24,8.60
2017,03,25,18,25,8.60
2017,03,25,18,26,8.60
2017,03,25,18,27,8.60
2017,03,25,18,28,8.60
2017,03,25,18,29,8.60
2017,03,25,18,30,8.60
2017,03,25,18,31,8.60
2017,03,25,18,32,8.60
2017,03,25,18,33,8.60
2017,03,25,18,34,8.50
2017,03,25,18,35,8.50
2017,03,25,18,36,8.50
2017,03,25,18,37,8.50
2017,03,25,18,38,8.40
2017,03,25,18,39,8.40
2017,03,25,18,40,8.40
2017,03,25,18,41,8.30
2017,03,25,18,42,8.30
2017,03,25,18,43,8.30
2017,03,25,18,44,8.30
2017,03,25,18,45,8.30
2017,03,25,18,46,8.30
2017,03,25,18,47,8.30
2017,03,25,18,48,8.30
2017,03,25,18,49,8.30
2017,03,25,18,50,8.20
2017,03,25,18,51,8.20
2017,03,25,18,52,8.20
2017,03,25,18,53,8.20
2017,03,25,18,54,8.20
2017,03,25,18,55,8.20
2017,03,25,18,56,8.20
2017,03,25,18,57,8.20
2017,03,25,18,58,8.20
2017,03,25,18,59,8.20
2017,03,25,19,00,8.20
2017,03,25,19,01,8.20
2017,03,25,19,02,8.20
2017,03,25,19,03,8.20
2017,03,25,19,04,8.20
2017,03,25,19,05,8.20
2017,03,25,19,06,8.20
2017,03,25,19,07,8.20
2017,03,25,19,08,8.20
2017,03,25,19,09,8.20
2017,03,25,19,10,8.20
2017,03,25,19,11,8.20
2017,03,25,19,12,8.20
2017,03,25,19,13,8.20
2017,03,25,19,14,8.10
2017,03,25,19,15,8.10
2017,03,25,19,16,8.10
2017,03,25,19,17,8.10
2017,03,25,19,18,8.10
2017,03,25,19,19,8.10
2017,03,25,19,20,8.10
2017,03,25,19,21,8.00
2017,03,25,19,22,8.00
2017,03,25,19,23,8.00
2017,03,25,19,24,7.90
2017,03,25,19,25,7.90
2017,03,25,19,26,7.90
2017,03,25,19,27,7.90
2017,03,25,19,28,7.80
2017,03,25,19,29,7.80
2017,03,25,19,30,7.80
2017,03,25,19,31,7.70
2017,03,25,19,32,7.70
2017,03,25,19,33,7.70
2017,03,25,19,34,7.70
2017,03,25,19,35,7.70
2017,03,25,19,36,7.70
2017,03,25,19,37,7.70
2017,03,25,19,38,7.70
2017,03,25,19,39,7.60
2017,03,25,19,40,7.60
2017,03,25,19,41,7.60
2017,03,25,19,42,7.60
2017,03,25,19,43,7.50
2017,03,25,19,44,7.50
2017,03,25,19,45,7.50
2017,03,25,19,46,7.40
2017,03,25,19,47,7.40
2017,03,25,19,48,7.40
2017,03,25,19,49,7.40
2017,03,25,19,50,7.40
2017,03,25,19,51,7.40
2017,03,25,19,52,7.30
2017,03,25,19,53,7.30
2017,03,25,19,54,7.30
2017,03,25,19,55,7.30
2017,03,25,19,56,7.30
2017,03,25,19,57,7.30
2017,03,25,19,58,7.30
2017,03,25,19,59,7.30
2017,03,25,20,00,7.30
2017,03,25,20,01,7.30
2017,03,25,20,02,7.30
2017,03,25,20,03,7.30
2017,03,25,20,04,7.30
2017,03,25,20,05,7.30
2017,03,25,20,06,7.20
2017,03,25,20,07,7.20
2017,03,25,20,08,7.20
2017,03,25,20,09,7.20
2017,03,25,20,10,7.20
2017,03,25,20,11,7.20
2017,03,25,20,12,7.20
2017,03,25,20,13,7.20
2017,03,25,20,14,7.10
2017,03,25,20,15,7.10
2017,03,25,20,16,7.00
2017,03,25,20,17,7.00
2017,03,25,20,18,6.90
2017,03,25,20,19,6.90
2017,03,25,20,20,6.90
2017,03,25,20,21,6.80
2017,03,25,20,22,6.80
2017,03,25,20,23,6.70
2017,03,25,20,24,6.70
2017,03,25,20,25,6.70
2017,03,25,20,26,6.70
2017,03,25,20,27,6.60
2017,03,25,20,28,6.60
2017,03,25,20,29,6.60
2017,03,25,20,30,6.60
2017,03,25,20,31,6.60
2017,03,25,20,32,6.50
2017,03,25,20,33,6.50
2017,03,25,20,34,6.40
2017,03,25,20,35,6.40
2017,03,25,20,36,6.40
2017,03,25,20,37,6.40
2017,03,25,20,38,6.40
2017,03,25,20,39,6.30
2017,03,25,20,40,6.30
2017,03,25,20,41,6.30
2017,03,25,20,42,6.30
2017,03,25,20,43,6.30
2017,03,25,20,44,6.30
2017,03,25,20,45,6.30
2017,03,25,20,46,6.30
2017,03,25,20,47,6.30
2017,03,25,20,48,6.30
2017,03,25,20,49,6.30
2017,03,25,20,50,6.30
2017,03,25,20,51,6.30
2017,03,25,20,52,6.30
2017,03,25,20,53,6.30
2017,03,25,20,54,6.30
2017,03,25,20,55,6.30
2017,03,25,20,56,6.20
2017,03,25,20,57,6.20
2017,03,25,20,58,6.20
2017,03,25,20,59,6.20
2017,03,25,21,00,6.20
2017,03,25,21,01,6.20
2017,03,25,21,02,6.20
2017,03,25,21,03,6.20
2017,03,25,21,04,6.20
2017,03,25,21,05,6.20
2017,03,25,21,06,6.20
2017,03,25,21,07,6.20
2017,03,25,21,08,6.20
2017,03,25,21,09,6.10
2017,03,25,21,10,6.10
2017,03,25,21,11,6.00
2017,03,25,21,12,6.00
2017,03,25,21,13,5.90
2017,03,25,21,14,5.90
2017,03,25,21,15,5.90
2017,03,25,21,16,5.80
2017,03,25,21,17,5.80
2017,03,25,21,18,5.80
2017,03,25,21,19,5.80
2017,03,25,21,20,5.80
2017,03,25,21,21,5.80
2017,03,25,21,22,5.70
2017,03,25,21,23,5.70
2017,03,25,21,24,5.70
2017,03,25,21,25,5.70
2017,03,25,21,26,5.70
2017,03,25,21,27,5.70
2017,03,25,21,28,5.70
2017,03,25,21,29,5.70
2017,03,25,21,30,5.70
2017,03,25,21,31,5.70
2017,03,25,21,32,5.70
2017,03,25,21,33,5.70
2017,03,25,21,34,5.70
2017,03,25,21,35,5.70
2017,03,25,21,36,5.70
2017,03,25,21,37,5.70
2017,03,25,21,38,5.70
2017,03,25,21,39,5.60
2017,03,25,21,40,5.60
2017,03,25,21,41,5.60
2017,03,25,21,42,5.60
2017,03,25,21,43,5.60
2017,03,25,21,44,5.60
2017,03,25,21,45,5.60
2017,03,25,21,46,5.50
2017,03,25,21,47,5.50
2017,03,25,21,48,5.50
2017,03,25,21,49,5.50
2017,03,25,21,50,5.50
2017,03,25,21,51,5.50
2017,03,25,21,52,5.40
2017,03,25,21,53,5.40
2017,03,25,21,54,5.40
2017,03,25,21,55,5.40
2017,03,25,21,56,5.30
2017,03,25,21,57,5.30
2017,03,25,21,58,5.30
2017,03,25,21,59,5.30
2017,03,25,22,00,5.30
2017,03,25,22,01,5.30
2017,03,25,22,02,5.30
2017,03,25,22,03,5.30
2017,03,25,22,04,5.20
2017,03,25,22,05,5.30
2017,03,25,22,06,5.30
2017,03,25,22,07,5.30
2017,03,25,22,08,5.30
2017,03,25,22,09,5.30
2017,03,25,22,10,5.30
2017,03,25,22,11,5.30
2017,03,25,22,12,5.30
2017,03,25,22,13,5.30
2017,03,25,22,14,5.30
2017,03,25,22,15,5.20
2017,03,25,22,16,5.20
2017,03,25,22,17,5.20
2017,03,25,22,18,5.20
2017,03,25,22,19,5.20
2017,03,25,22,20,5.20
2017,03,25,22,21,5.10
2017,03,25,22,22,5.10
2017,03,25,22,23,5.10
2017,03,25,22,24,5.10
2017,03,25,22,25,5.10
2017,03,25,22,26,5.10
2017,03,25,22,27,5.10
2017,03,25,22,28,5.20
2017,03,25,22,29,5.20
2017,03,25,22,30,5.20
2017,03,25,22,31,5.20
2017,03,25,22,32,5.20
2017,03,25,22,33,5.20
2017,03,25,22,34,5.20
2017,03,25,22,35,5.20
2017,03,25,22,36,5.20
2017,03,25,22,37,5.20
2017,03,25,22,38,5.20
2017,03,25,22,39,5.20
2017,03,25,22,40,5.20
2017,03,25,22,41,5.20
2017,03,25,22,42,5.20
2017,03,25,22,43,5.20
2017,03,25,22,44,5.20
2017,03,25,22,45,5.20
2017,03,25,22,46,5.20
2017,03,25,22,47,5.20
2017,03,25,22,48,5.20
2017,03,25,22,49,5.20
2017,03,25,22,50,5.20
2017,03,25,22,51,5.20
2017,03,25,22,52,5.20
2017,03,25,22,53,5.20
2017,03,25,22,54,5.20
2017,03,25,22,55,5.20
2017,03,25,22,56,5.20
2017,03,25,22,57,5.20
2017,03,25,22,58,5.20
2017,03,25,22,59,5.20
2017,03,25,23,00,5.20
2017,03,25,23,01,5.20
2017,03,25,23,02,5.20
2017,03,25,23,03,5.20
2017,03,25,23,04,5.20
2017,03,25,23,05,5.20